TimeCDT,TemperatureF,Dew PointF,Humidity,Sea Level PressureIn,VisibilityMPH,Wind Direction,Wind SpeedMPH,Gust SpeedMPH,PrecipitationIn,Events,Conditions,WindDirDegrees,DateUTC
12:49 AM,73.4,66.2,78,29.80,7.0,South,15.0,-,N/A,,Mostly Cloudy,170,2013-04-16 05:49:00
12:53 AM,73.0,66.9,81,29.78,7.0,South,13.8,21.9,N/A,,Mostly Cloudy,180,2013-04-16 05:53:00
1:53 AM,73.0,66.9,81,29.79,6.0,South,15.0,-,N/A,,Haze,170,2013-04-16 06:53:00
2:53 AM,72.0,66.9,84,29.78,5.0,SSE,15.0,21.9,N/A,,Haze,160,2013-04-16 07:53:00
3:53 AM,72.0,66.9,84,29.78,5.0,SSE,11.5,-,N/A,,Haze,160,2013-04-16 08:53:00
4:53 AM,72.0,66.0,81,29.81,5.0,South,8.1,-,N/A,,Haze,180,2013-04-16 09:53:00
5:41 AM,71.6,66.2,83,29.83,5.0,South,6.9,-,N/A,,Haze,170,2013-04-16 10:41:00
5:53 AM,71.1,66.0,84,29.81,5.0,South,6.9,-,N/A,,Haze,170,2013-04-16 10:53:00
7:53 AM,71.1,64.0,78,29.86,4.0,South,8.1,-,N/A,,Haze,180,2013-04-16 12:53:00
8:53 AM,72.0,64.9,78,29.89,5.0,South,10.4,-,N/A,,Haze,190,2013-04-16 13:53:00
9:53 AM,73.9,63.0,68,29.90,5.0,South,15.0,-,N/A,,Haze,190,2013-04-16 14:53:00
10:45 AM,75.2,64.4,69,29.92,6.0,South,9.2,-,N/A,,Haze,190,2013-04-16 15:45:00
10:53 AM,75.9,64.0,67,29.91,6.0,South,11.5,-,N/A,,Haze,190,2013-04-16 15:53:00
11:53 AM,79.0,64.0,60,29.90,6.0,SSE,12.7,20.7,N/A,,Haze,160,2013-04-16 16:53:00
12:53 PM,81.0,64.9,58,29.88,7.0,SE,11.5,20.7,N/A,,Clear,140,2013-04-16 17:53:00
1:53 PM,82.9,64.0,53,29.88,7.0,SSE,10.4,16.1,N/A,,Clear,160,2013-04-16 18:53:00
2:53 PM,84.9,64.9,51,29.85,7.0,SSE,15.0,-,N/A,,Clear,160,2013-04-16 19:53:00
3:53 PM,86.0,64.9,49,29.83,8.0,South,10.4,-,N/A,,Clear,170,2013-04-16 20:53:00
4:53 PM,87.1,64.0,46,29.81,9.0,South,11.5,-,N/A,,Clear,170,2013-04-16 21:53:00
5:53 PM,87.1,64.9,48,29.81,8.0,SSE,10.4,-,N/A,,Clear,160,2013-04-16 22:53:00
6:53 PM,84.0,64.9,53,29.82,7.0,South,10.4,-,N/A,,Clear,170,2013-04-16 23:53:00
7:53 PM,82.9,66.0,56,29.83,7.0,SSE,10.4,-,N/A,,Clear,160,2013-04-17 00:53:00
8:53 PM,80.1,66.0,62,29.85,9.0,SSE,13.8,-,N/A,,Clear,160,2013-04-17 01:53:00
9:53 PM,78.1,66.9,68,29.87,9.0,SSE,13.8,20.7,N/A,,Clear,160,2013-04-17 02:53:00
10:53 PM,75.9,66.9,74,29.88,10.0,SSE,11.5,-,N/A,,Clear,160,2013-04-17 03:53:00
11:53 PM,73.9,66.0,76,29.88,10.0,SSE,10.4,-,N/A,,Scattered Clouds,160,2013-04-17 04:53:00